Location: Caltech
(34.1382°N, 118.1253°W)
Time: 12:13:42
(UTC-07:00)

Cosmos 2333 Rocket - Visible Passes

Search period start: 03 September 2015 00:00
Search period end: 13 September 2015 00:00
Orbit: 842 x 860 km, 70.8° (Epoch: 02 September)

Date Brightness Start Highest point End Pass type
(mag) Time Alt. Az. Time Alt. Az. Time Alt. Az.
03 Sep 4.3 02:46:07 23° NNE 02:46:07 23° NNE 02:48:07 10° NNE visible
03 Sep 4.2 04:28:08 13° NW 04:28:08 13° NW 04:30:05 10° NNW visible
04 Sep 4.5 02:34:22 19° NNE 02:34:22 19° NNE 02:35:54 10° NNE visible
04 Sep 4.3 04:16:24 13° NW 04:16:24 13° NW 04:17:51 10° NNW visible
05 Sep 4.7 02:22:37 16° NNE 02:22:37 16° NNE 02:23:41 10° NNE visible
05 Sep 4.4 04:04:38 12° NW 04:04:38 12° NW 04:05:38 10° NNW visible
06 Sep 4.9 02:10:49 13° NNE 02:10:49 13° NNE 02:11:27 10° NNE visible
06 Sep 4.6 03:52:50 11° NNW 03:52:50 11° NNW 03:53:24 10° NNW visible
07 Sep 5.1 01:59:00 11° NNE 01:59:00 11° NNE 01:59:14 10° NNE visible
07 Sep 4.7 03:41:01 10° NNW 03:41:01 10° NNW 03:41:11 10° NNW visible
